East Milton, MA

5:03 AM EDT on March 24, 2017 (GMT -0400)
East Milton

Weather History for KMQE - October, 2012

Change the Weather History Date:

Tuesday, October 30, 2012

  Actual Average (KOWD) Record (KOWD)
Temperature  
Mean Temperature 60 °F -  
Max Temperature 66 °F 55 °F 69 °F (2012)
Min Temperature 53 °F 33 °F 24 °F (2001)
Degree Days  
Heating Degree Days 6    
Growing Degree Days 10 (Base 50)    
Moisture  
Dew Point 56 °F    
Average Humidity 89    
Maximum Humidity 97    
Minimum Humidity 65    
Precipitation  
Precipitation 0.50 in - - ()
Sea Level Pressure  
Sea Level Pressure 29.52 in    
Wind  
Wind Speed 13 mph (SE)    
Max Wind Speed 18 mph    
Max Gust Speed 29 mph    
Averages and records for this station are not official NWS values.
T = Trace of Precipitation, MM = Missing Value Source: NWS Daily Summary

Daily Weather History Graph

Daily Weather History Graph

Search for Another Location

Airport or City:

Trip Planner

Search our weather history database for the weather conditions in past years. The results will help you decide how hot, cold, wet, or windy it might be!

Date:

Astronomy

Oct. 30, 2012 Rise Set
Actual Time 7:15 AM EDT 5:39 PM EDT
Civil Twilight 6:46 AM EDT 6:08 PM EDT
Nautical Twilight 6:13 AM EDT 6:41 PM EDT
Astronomical Twilight 5:40 AM EDT 7:14 PM EDT
Moon 6:05 PM EDT (10/30) 8:00 AM EDT (10/30)
Length of Visible Light 11h 22m
Length of Day
10h 24m
Full, 99% of the Moon is Illuminated
Oct 30
Full
Nov 6
Last Quarter
Nov 13
New
Nov 20
First Quarter
Nov 28
Full

Hourly Weather History & Observations

Time (EDT) Temp. Dew Point Humidity Pressure Visibility Wind Dir Wind Speed Gust Speed Precip Events Conditions
12:54 AM 60.1 °F 59.0 °F 96% 29.35 in - ESE 16.1 mph 28.8 mph N/A   Unknown
1:54 AM 59.0 °F 57.9 °F 96% 29.37 in - ESE 13.8 mph 23.0 mph N/A   Unknown
2:54 AM 59.0 °F 57.0 °F 93% 29.39 in - ESE 16.1 mph - N/A   Unknown
3:54 AM 59.0 °F 57.0 °F 93% 29.39 in - ESE 18.4 mph 23.0 mph 0.01 in   Unknown
4:54 AM 57.9 °F 55.9 °F 93% 29.42 in - SE 15.0 mph - N/A   Unknown
5:54 AM 57.9 °F 55.9 °F 93% 29.46 in - SE 13.8 mph 24.2 mph N/A   Unknown
6:54 AM 57.9 °F 55.9 °F 93% 29.48 in - SE 6.9 mph - 0.12 in   Unknown
7:54 AM 57.9 °F 55.9 °F 93% 29.49 in - ESE 16.1 mph - N/A   Unknown
8:54 AM 59.0 °F 57.0 °F 93% 29.53 in - SE 12.7 mph 20.7 mph 0.03 in   Unknown
9:54 AM 62.1 °F 57.9 °F 86% 29.56 in - SSE 15.0 mph 24.2 mph N/A   Unknown
10:54 AM 63.0 °F 57.9 °F 84% 29.58 in - SSE 10.4 mph 24.2 mph N/A   Unknown
11:54 AM 64.0 °F 55.0 °F 73% 29.58 in - SSE 11.5 mph 21.9 mph N/A   Unknown
12:54 PM 66.0 °F 54.0 °F 65% 29.58 in - SE 13.8 mph 23.0 mph N/A   Unknown
1:54 PM 63.0 °F 55.0 °F 75% 29.59 in - SE 11.5 mph - N/A   Unknown
2:54 PM 64.0 °F 55.9 °F 75% 29.58 in - ESE 11.5 mph - N/A   Unknown
3:54 PM 63.0 °F 57.0 °F 81% 29.57 in - ESE 11.5 mph 21.9 mph N/A   Unknown
4:54 PM 61.0 °F 57.0 °F 87% 29.57 in - ESE 11.5 mph - N/A   Unknown
5:54 PM 59.0 °F 57.9 °F 96% 29.58 in - SE 10.4 mph - 0.02 in   Unknown
6:54 PM 59.0 °F 57.9 °F 96% 29.56 in - ESE 12.7 mph - 0.04 in   Unknown
7:54 PM 59.0 °F 57.9 °F 96% 29.56 in - SE 4.6 mph - N/A   Unknown
8:54 PM 55.0 °F 54.0 °F 96% 29.55 in - East 8.1 mph - 0.28 in   Unknown
9:54 PM 54.0 °F 53.1 °F 97% 29.56 in - ESE 11.5 mph - N/A   Unknown
10:54 PM 53.1 °F 52.0 °F 96% 29.57 in - SE 8.1 mph - N/A   Unknown
11:54 PM 55.0 °F 51.1 °F 86% 29.57 in - South 10.4 mph - N/A   Unknown